Flight Track Log - Related Links

Times and Time Zones

All times are in EDT time to prevent confusion due to time zone crossing. See the EJA727 flight status page for this flight to view local times or setup timezone preferences in your user account.

Time Position Orientation Groundspeed Altitude Reporting Facility
EDT Latitude Longitude Course Direction KTS MPH feet Rate Location/Type
Fri 11:29:52 AM 32.7800 -79.9722 54° Northeast 267 307 4,800  Level Jacksonville Center
Fri 11:30:52 AM 32.8239 -79.8867 59° Northeast 315 362 9,700 2,600 Climbing Jacksonville Center
Fri 11:31:52 AM 32.8842 -79.7906 53° Northeast 362 417 10,000 750 Climbing Jacksonville Center
Fri 11:32:52 AM 32.9464 -79.6919 53° Northeast 367 422 11,200 2,700 Climbing Jacksonville Center
Fri 11:33:52 AM 33.0106 -79.5931 52° Northeast 373 429 15,400 2,850 Climbing Jacksonville Center
Fri 11:34:00 AM 33.0961 -79.7288 54° Northeast  Level FlightAware Approximate
Fri 11:34:52 AM 33.0767 -79.4864 53° Northeast 379 436 16,900  Level Jacksonville Center
Fri 11:35:52 AM 33.1489 -79.3747 52° Northeast 399 459 17,000 50 Climbing Jacksonville Center
Fri 11:36:52 AM 33.2231 -79.2650 51° Northeast 410 472 17,000  Level Jacksonville Center
Fri 11:37:52 AM 33.2947 -79.1528 53° Northeast 421 484 17,000 1,450 Level Jacksonville Center
Fri 11:38:52 AM 33.3686 -79.0403 52° Northeast 421 484 19,900 2,850 Climbing Jacksonville Center
Fri 11:39:52 AM 33.4533 -78.9494 42° Northeast 426 490 22,700 1,450 Climbing Jacksonville Center
Fri 11:40:52 AM 33.5461 -78.8406 44° Northeast 423 487 22,800 -1,250 Climbing Jacksonville Center
Fri 11:41:52 AM 33.6383 -78.7317 44° Northeast 447 514 20,200 -2,500 Descending Jacksonville Center
Fri 11:42:52 AM 33.7225 -78.6253 46° Northeast 452 520 17,800 -2,950 Descending Jacksonville Center
Fri 11:43:52 AM 33.8006 -78.5239 47° Northeast 439 505 14,300 -3,300 Descending Jacksonville Center
Fri 11:44:52 AM 33.8722 -78.4303 47° Northeast 407 468 11,200 -1,744 Descending Jacksonville Center
Fri 11:45:49 AM 33.9275 -78.3550 48° Northeast 371 427 10,900 -153 Descending Washington Center
Fri 11:46:50 AM 33.9931 -78.2694 47° Northeast 353 406 10,900 -339 Level Washington Center
Fri 11:47:53 AM 34.0547 -78.1897 47° Northeast 279 321 10,200 -1,790 Descending Washington Center
Fri 11:48:54 AM 34.1086 -78.1183 48° Northeast 281 323 7,200 -2,640 Descending Washington Center
Fri 11:49:58 AM 34.1350 -78.0378 68° East 268 308 4,700 -2,000 Descending Washington Center
Fri 11:51:00 AM 34.1114 -77.9764 115° Southeast 242 278 3,000 -864 Descending Washington Center
Fri 11:52:03 AM 34.0689 -78.0131 216° Southwest 240 276 2,900 -242 Descending Washington Center
Fri 11:53:04 AM 34.1169 -78.0467 330° Northwest 234 269 2,500 -639 Descending Washington Center
Fri 11:54:05 AM 34.1692 -78.0353 10° North 212 244 1,600 -480 Descending Washington Center
Fri 11:55:09 AM 34.2081 -77.9844 47° Northeast 183 211 1,500 -378 Descending Washington Center
Fri 11:56:12 AM 34.2372 -77.9444 49° Northeast 170 196 800 -624 Descending Washington Center
Fri 11:57:14 AM 34.2658 -77.9050 49° Northeast 156 180 200 -581 Descending Washington Center

Login

Don't have an account? Register now (free) for customized features, flight alerts, and more!